Zurück zum Katalog

DELTA 1 DEB

LostLEO
NORAD 42575·DEBRIS·🇺🇸 United States

Gestartet Nov 6, 1973 von Vandenberg Space Force Base

Loading…

Nächste Überflüge (nächste 24 Stunden)

TLE

VeraltetSource: Space-Track

Epoche: May 3, 2024, 07:21 UTC

1 42575U 73086HP  24124.30642692  .00014888  00000-0  35234-1 0  9999
2 42575 103.7027 146.4888 0312542 337.0542  21.6845 13.07288196127310

Verfolge DELTA 1 DEB in Echtzeit mit AllMySat

Download on the App Store